EW0158 Weather Reports


time (UTC)temp
C
wind
direction
speed
KPH
gust
KPH
rain 1hr
cm
rain 24hr
cm
rain mn
cm
humidity
%
barometer
mb
20260510045115 22 180 6.4 11.3 0.00 0.00 0.00 83 1013.4
20260510044015 22 157 6.4 11.3 0.00 0.00 0.00 83 1013.4
20260510043016 22 157 4.8 11.3 0.00 0.00 0.00 84 1013.1
20260510042116 22 157 4.8 9.7 0.00 0.00 0.00 83 1013.2
20260510041015 21 157 4.8 9.7 0.00 0.00 0.00 83 1013.0
20260510040015 21 135 6.4 9.7 0.00 0.00 0.00 82 1012.7
20260510035016 22 135 6.4 12.9 0.00 0.00 0.00 81 1012.6
20260510034015 22 135 4.8 9.7 0.00 0.00 0.00 79 1012.5
20260510033015 22 135 4.8 8.0 0.00 0.00 0.00 78 1012.4
20260510032015 22 135 4.8 9.7 0.00 0.00 0.00 76 1012.2
20260510031156 23 135 4.8 9.7 0.00 0.00 0.00 74 1012.1
20260510030117 23 135 4.8 9.7 0.00 0.00 0.00 71 1012.0
20260510025017 24 112 6.4 12.9 0.00 0.00 0.00 68 1011.9
20260510024015 25 112 3.2 6.4 0.00 0.00 0.00 66 1011.9
20260510023015 25 112 4.8 8.0 0.00 0.00 0.00 64 1011.8
20260510022016 25 112 6.4 9.7 0.00 0.00 0.00 63 1011.6
20260510021015 25 90 4.8 8.0 0.00 0.00 0.00 62 1011.5
20260510020015 25 90 3.2 6.4 0.00 0.00 0.00 61 1011.3
20260510015015 26 90 3.2 4.8 0.00 0.00 0.00 60 1011.4
20260510014015 26 90 6.4 8.0 0.00 0.00 0.00 58 1011.2
20260510013015 26 90 6.4 8.0 0.00 0.00 0.00 58 1011.1
20260510012015 27 270 3.2 4.8 0.00 0.00 0.00 57 1011.2
20260510011015 28 270 1.6 3.2 0.00 0.00 0.00 56 1011.2
20260510010016 28 0.0 1.6 0.00 0.00 0.00 57 1011.1
20260510004015 30 0.0 1.6 0.00 0.00 0.00 53 1011.0
20260510003016 30 270 1.6 3.2 0.00 0.00 0.00 50 1011.0
20260510001015 30 270 3.2 4.8 0.00 0.00 0.00 50 1011.4
20260510000015 30 270 3.2 6.4 0.00 0.00 0.00 51 1011.3
20260509235015 30 292 3.2 6.4 0.00 0.00 0.00 48 1011.2
20260509234015 31 292 4.8 8.0 0.00 0.00 0.00 49 1011.0
20260509233015 31 225 3.2 6.4 0.00 0.00 0.00 46 1011.3
20260509232015 31 225 4.8 6.4 0.00 0.00 0.00 46 1011.3
20260509231016 31 225 6.4 9.7 0.00 0.00 0.00 48 1011.5
20260509230016 31 225 4.8 8.0 0.00 0.00 0.00 48 1011.5
20260509225016 31 225 1.6 4.8 0.00 0.00 0.00 45 1011.5
20260509224016 31 225 4.8 8.0 0.00 0.00 0.00 45 1011.4
20260509223016 31 202 3.2 8.0 0.00 0.00 0.00 44 1011.4
20260509222015 31 247 6.4 11.3 0.00 0.00 0.00 48 1011.5
20260509221015 30 292 1.6 6.4 0.00 0.00 0.00 48 1011.5
20260509220016 30 292 4.8 9.7 0.00 0.00 0.00 52 1011.5
20260509213015 30 247 6.4 17.7 0.00 0.00 0.00 55 1011.6
20260509212016 30 270 6.4 11.3 0.00 0.00 0.00 55 1011.7
20260509211016 30 292 6.4 17.7 0.00 0.00 0.00 54 1011.9
20260509210016 30 270 6.4 14.5 0.00 0.00 0.00 51 1011.9
20260509205017 30 225 6.4 11.3 0.00 0.00 0.00 58 1012.3
20260509204015 30 315 3.2 6.4 0.00 0.00 0.00 57 1012.5
20260509203136 30 202 4.8 20.9 0.00 0.00 0.00 58 1012.9
20260509202015 30 247 6.4 12.9 0.00 0.00 0.00 56 1012.9
20260509201016 29 270 6.4 14.5 0.00 0.00 0.00 58 1013.0
20260509200016 29 315 3.2 4.8 0.00 0.00 0.00 58 1012.9
20260509195016 29 270 11.3 19.3 0.00 0.00 0.00 59 1012.9
20260509194015 28 225 6.4 14.5 0.00 0.00 0.00 61 1013.1
20260509193015 29 270 11.3 19.3 0.00 0.00 0.00 61 1013.1
20260509192017 28 247 9.7 17.7 0.00 0.00 0.00 59 1013.1
20260509191017 28 225 11.3 19.3 0.00 0.00 0.00 61 1013.0
20260509190136 28 247 8.0 16.1 0.00 0.00 0.00 65 1013.2
20260509185020 28 247 12.9 20.9 0.00 0.00 0.00 64 1013.5
20260509184021 28 225 11.3 20.9 0.00 0.00 0.00 70 1013.5
20260509183016 27 225 12.9 20.9 0.00 0.00 0.00 68 1013.7
20260509182016 27 225 14.5 20.9 0.00 0.00 0.00 70 1013.7
20260509181016 27 202 11.3 20.9 0.00 0.00 0.00 72 1013.7
20260509180015 27 202 11.3 19.3 0.00 0.00 0.00 72 1013.8
20260509174016 26 247 12.9 20.9 0.00 0.00 0.00 74 1014.0
20260509173017 26 180 9.7 19.3 0.00 0.00 0.00 76 1014.2
20260509172016 26 180 9.7 19.3 0.00 0.00 0.00 77 1014.1
20260509171016 26 157 8.0 17.7 0.00 0.00 0.00 78 1014.1
20260509170016 25 157 9.7 19.3 0.00 0.00 0.00 78 1014.1
20260509165016 25 180 6.4 11.3 0.00 0.00 0.00 78 1014.2
20260509164016 25 180 11.3 20.9 0.00 0.00 0.00 80 1014.2
20260509163016 23 180 6.4 16.1 0.00 0.00 0.00 85 1014.1
20260509162016 23 202 8.0 19.3 0.00 0.00 0.00 89 1014.2
20260509161016 22 225 8.0 17.7 0.00 0.00 0.00 95 1014.1
20260509160016 22 180 9.7 19.3 0.00 0.00 0.00 100 1013.9
20260509155016 21 135 6.4 14.5 0.00 0.00 0.00 100 1014.0
20260509154016 20 270 3.2 8.0 0.00 0.00 0.00 100 1013.8
20260509153136 20 270 1.6 6.4 0.00 0.00 0.00 100 1013.6
20260509152016 20 247 3.2 9.7 0.00 0.00 0.00 100 1013.4
20260509151016 20 225 8.0 16.1 0.00 0.00 0.00 100 1013.4
20260509150016 19 202 8.0 16.1 0.00 0.00 0.00 100 1013.0
20260509145016 18 225 14.5 22.5 0.00 0.00 0.00 100 1012.9
20260509144016 18 202 11.3 20.9 0.00 0.00 0.00 100 1012.9
20260509143016 18 202 8.0 16.1 0.00 0.00 0.00 100 1013.0
20260509142016 18 202 12.9 19.3 0.00 0.00 0.00 100 1012.9
20260509141117 18 202 11.3 17.7 0.00 0.00 0.00 100 1013.1
20260509140016 18 202 12.9 20.9 0.00 0.00 0.00 100 1013.0
20260509135016 18 180 6.4 11.3 0.00 0.00 0.00 100 1013.1
20260509133016 18 135 1.6 8.0 0.00 0.00 0.00 100 1013.4
20260509132016 18 45 1.6 4.8 0.00 0.00 0.00 100 1013.7
20260509131016 18 45 9.7 14.5 0.00 0.00 0.00 100 1014.1
20260509130117 18 45 4.8 9.7 0.00 0.00 0.00 100 1013.9
20260509125016 18 0.0 4.8 0.00 0.00 0.00 100 1013.7
20260509124016 18 0.0 1.6 0.00 0.00 0.00 100 1013.4
20260509123016 18 90 3.2 8.0 0.00 0.00 0.00 100 1013.4
20260509122016 18 90 6.4 9.7 0.00 0.00 0.00 100 1013.5
20260509121016 18 90 8.0 11.3 0.00 0.00 0.00 100 1013.5
20260509120116 18 90 6.4 11.3 0.00 0.00 0.00 100 1013.5
20260509115016 18 67 4.8 9.7 0.00 0.00 0.00 100 1013.8
20260509114117 18 45 9.7 14.5 0.00 0.00 0.00 100 1013.9
20260509113116 18 45 11.3 17.7 0.00 0.00 0.00 100 1013.8
20260509112016 18 45 14.5 20.9 0.00 0.00 0.00 100 1014.2
20260509111016 18 45 11.3 19.3 0.00 0.00 0.00 100 1014.2
20260509110016 18 45 17.7 22.5 0.00 0.00 0.00 100 1014.3
20260509105016 18 22 19.3 29.0 0.00 0.00 0.00 100 1014.5
20260509104016 18 0 17.7 29.0 0.00 0.00 0.00 100 1014.5
20260509103016 18 0 9.7 16.1 0.00 0.00 0.00 100 1014.0
20260509101016 18 90 4.8 8.0 0.00 0.00 0.00 100 1013.4
20260509100117 18 157 3.2 6.4 0.00 0.00 0.00 100 1013.1
20260509095016 18 0.0 0.0 0.00 0.00 0.00 100 1012.5
20260509094016 18 0.0 0.0 0.00 0.00 0.00 100 1012.5
20260509093016 18 0.0 0.0 0.00 0.00 0.00 100 1012.5
20260509092016 18 0.0 0.0 0.00 0.00 0.00 100 1012.6
20260509090016 18 180 1.6 3.2 0.00 0.00 0.00 100 1012.6
20260509085016 18 180 3.2 6.4 0.00 0.00 0.00 100 1012.7
20260509083016 18 180 4.8 8.0 0.00 0.00 0.00 100 1013.1
20260509082016 18 180 4.8 8.0 0.00 0.00 0.00 100 1013.0
20260509081016 18 180 3.2 8.0 0.00 0.00 0.00 100 1013.1
20260509080116 18 180 3.2 8.0 0.00 0.00 0.00 99 1012.8
20260509075015 18 0.0 1.6 0.00 0.00 0.00 99 1013.2
20260509074016 18 202 1.6 6.4 0.00 0.00 0.00 99 1013.3
20260509073016 18 202 4.8 9.7 0.00 0.00 0.00 99 1013.2
20260509071016 18 202 6.4 9.7 0.00 0.00 0.00 99 1013.4
20260509070016 18 202 8.0 14.5 0.00 0.00 0.00 99 1013.3
20260509065016 18 180 8.0 11.3 0.00 0.00 0.00 99 1013.4
20260509063016 18 202 6.4 14.5 0.00 0.00 0.00 99 1013.1
20260509061016 18 202 4.8 9.7 0.00 0.00 0.00 99 1013.2
20260509060017 18 202 6.4 11.3 0.00 0.00 0.00 99 1013.4
20260509055116 17 202 9.7 16.1 0.00 0.00 0.00 99 1013.5
20260509054016 17 180 6.4 9.7 0.00 0.00 0.00 99 1013.3
20260509053016 17 180 6.4 12.9 0.00 0.00 0.00 98 1013.3
20260509052016 17 180 6.4 12.9 0.00 0.00 0.00 99 1013.2
20260509051016 18 180 8.0 14.5 0.00 0.00 0.00 98 1013.5
20260509050017 18 180 8.0 12.9 0.00 0.00 0.00 98 1013.1